When you browse on this site, cookies collect data to enhance your experience and personalize the content and advertising you see.
Visit our Privacy Policy to learn more. By continuing to use the site, you agree to this use of cookies and data.
  • In Romania
  • List of Countries
  • For 7 days
  • Water Temperature
  • Satellite Maps
  • Weather Map
  • Weather Widgets
  • user-avatar
    Login

    Hourly Weather Birmingham

    Today, 23 April, Tuesday

    Time Temperature Precipitation Wind Pressure Humidity
    00:00 +13°C° 0 mm 2 mps 738 mmHg 81%
    01:00 +12°C° 0 mm 2 mps 737 mmHg 80%
    02:00 +12°C° 0 mm 2 mps 737 mmHg 79%
    03:00 +10°C° 0 mm 3 mps 737 mmHg 78%
    04:00 +10°C° 0 mm 3 mps 736 mmHg 79%
    05:00 +10°C° 0 mm 3 mps 736 mmHg 80%
    06:00 +10°C° 0 mm 3 mps 736 mmHg 81%
    07:00 +12°C° 0 mm 3 mps 736 mmHg 79%
    08:00 +14°C° 0 mm 4 mps 736 mmHg 76%
    09:00 +15°C° 0 mm 4 mps 736 mmHg 74%
    10:00 +18°C° 0 mm 4 mps 736 mmHg 71%
    11:00 +19°C° 0 mm 5 mps 736 mmHg 68%
    12:00 +20°C° 0 mm 5 mps 736 mmHg 65%
    13:00 +20°C° 0 mm 5 mps 735 mmHg 63%
    14:00 +21°C° 0 mm 5 mps 735 mmHg 62%
    15:00 +21°C° 0 mm 5 mps 735 mmHg 60%
    16:00 +20°C° 0 mm 5 mps 735 mmHg 64%
    17:00 +19°C° 0 mm 5 mps 735 mmHg 67%
    18:00 +18°C° 0 mm 4 mps 734 mmHg 71%
    19:00 +15°C° 0 mm 4 mps 734 mmHg 74%
    20:00 +14°C° 0 mm 4 mps 734 mmHg 77%
    21:00 +12°C° 0 mm 4 mps 734 mmHg 80%
    22:00 +11°C° 0 mm 4 mps 734 mmHg 82%
    23:00 +11°C° 0 mm 4 mps 733 mmHg 85%

    Tomorrow, 24 April, Wednesday

    Time Temperature Precipitation Wind Pressure Humidity
    00:00 +10°C° 0 mm 3 mps 733 mmHg 87%
    01:00 +9°C° 0 mm 3 mps 733 mmHg 89%
    02:00 +9°C° 0 mm 3 mps 732 mmHg 91%
    03:00 +9°C° 0 mm 3 mps 731 mmHg 93%
    04:00 +8°C° 0 mm 4 mps 731 mmHg 92%
    05:00 +8°C° 0 mm 4 mps 731 mmHg 92%
    06:00 +10°C° 0 mm 4 mps 731 mmHg 91%
    07:00 +11°C° 0.3 mm 4 mps 731 mmHg 91%
    08:00 +12°C° 0.3 mm 4 mps 731 mmHg 90%
    09:00 +13°C° 0.3 mm 4 mps 731 mmHg 89%
    10:00 +12°C° 0.6 mm 4 mps 731 mmHg 88%
    11:00 +10°C° 0.6 mm 5 mps 732 mmHg 87%
    12:00 +9°C° 0.6 mm 5 mps 732 mmHg 86%
    13:00 +10°C° 0.1 mm 5 mps 732 mmHg 79%
    14:00 +13°C° 0.1 mm 6 mps 733 mmHg 72%
    15:00 +14°C° 0.1 mm 6 mps 733 mmHg 65%
    16:00 +13°C° 0 mm 6 mps 733 mmHg 67%
    17:00 +13°C° 0 mm 5 mps 733 mmHg 69%
    18:00 +12°C° 0 mm 4 mps 733 mmHg 70%
    19:00 +11°C° 0.1 mm 4 mps 733 mmHg 75%
    20:00 +10°C° 0.1 mm 4 mps 734 mmHg 79%
    21:00 +8°C° 0.1 mm 4 mps 734 mmHg 83%
    22:00 +8°C° 0.1 mm 4 mps 734 mmHg 84%
    23:00 +7°C° 0.1 mm 4 mps 734 mmHg 84%

    Day after tomorrow, 25 April, Thursday

    Time Temperature Precipitation Wind Pressure Humidity
    00:00 +7°C° 0.1 mm 5 mps 733 mmHg 85%
    01:00 +7°C° 0.1 mm 5 mps 733 mmHg 86%
    02:00 +7°C° 0.1 mm 6 mps 733 mmHg 88%
    03:00 +7°C° 0.1 mm 6 mps 732 mmHg 89%
    04:00 +7°C° 0.1 mm 5 mps 732 mmHg 89%
    05:00 +8°C° 0.1 mm 5 mps 732 mmHg 90%
    06:00 +8°C° 0.1 mm 4 mps 732 mmHg 90%
    07:00 +8°C° 0.2 mm 4 mps 732 mmHg 87%
    08:00 +10°C° 0.2 mm 4 mps 732 mmHg 84%
    09:00 +10°C° 0.2 mm 4 mps 732 mmHg 80%
    10:00 +10°C° 0.4 mm 5 mps 733 mmHg 78%
    11:00 +10°C° 0.4 mm 6 mps 733 mmHg 75%
    12:00 +10°C° 0.4 mm 6 mps 733 mmHg 72%
    13:00 +10°C° 0.2 mm 7 mps 734 mmHg 68%
    14:00 +11°C° 0.2 mm 8 mps 734 mmHg 64%
    15:00 +11°C° 0.2 mm 9 mps 734 mmHg 60%
    16:00 +10°C° 0.3 mm 8 mps 734 mmHg 64%
    17:00 +10°C° 0.3 mm 8 mps 735 mmHg 69%
    18:00 +9°C° 0.3 mm 8 mps 735 mmHg 73%
    19:00 +7°C° 0.5 mm 8 mps 735 mmHg 76%
    20:00 +8°C° 0.5 mm 7 mps 736 mmHg 79%
    21:00 +6°C° 0.5 mm 7 mps 737 mmHg 82%
    22:00 +6°C° 0 mm 7 mps 737 mmHg 82%
    23:00 +7°C° 0 mm 6 mps 737 mmHg 83%

    26 April, Friday

    Time Temperature Precipitation Wind Pressure Humidity
    00:00 +7°C° 0 mm 6 mps 738 mmHg 83%
    01:00 +5°C° 0 mm 6 mps 738 mmHg 84%
    02:00 +5°C° 0 mm 6 mps 738 mmHg 85%
    03:00 +5°C° 0 mm 6 mps 739 mmHg 86%
    04:00 +6°C° 0 mm 5 mps 739 mmHg 87%
    05:00 +6°C° 0 mm 5 mps 739 mmHg 87%
    06:00 +6°C° 0 mm 5 mps 740 mmHg 88%
    07:00 +8°C° 0 mm 5 mps 740 mmHg 85%
    08:00 +9°C° 0 mm 5 mps 740 mmHg 82%
    09:00 +10°C° 0 mm 5 mps 740 mmHg 79%
    10:00 +12°C° 0.7 mm 5 mps 741 mmHg 77%
    11:00 +13°C° 0.7 mm 5 mps 741 mmHg 75%
    12:00 +14°C° 0.7 mm 4 mps 741 mmHg 73%
    13:00 +13°C° 1.1 mm 5 mps 742 mmHg 72%
    14:00 +12°C° 1.1 mm 7 mps 742 mmHg 71%
    15:00 +11°C° 1.1 mm 8 mps 743 mmHg 71%
    16:00 +10°C° 0.1 mm 7 mps 744 mmHg 70%
    17:00 +10°C° 0.1 mm 6 mps 744 mmHg 69%
    18:00 +9°C° 0.1 mm 5 mps 745 mmHg 68%
    19:00 +8°C° 0 mm 4 mps 746 mmHg 69%
    20:00 +6°C° 0 mm 4 mps 747 mmHg 69%
    21:00 +5°C° 0 mm 3 mps 747 mmHg 69%
    22:00 +5°C° 0 mm 4 mps 747 mmHg 70%
    23:00 +5°C° 0 mm 4 mps 746 mmHg 71%

    27 April, Saturday

    Time Temperature Precipitation Wind Pressure Humidity
    00:00 +5°C° 0 mm 4 mps 745 mmHg 73%
    01:00 +6°C° 1.1 mm 5 mps 744 mmHg 78%
    02:00 +5°C° 1.1 mm 6 mps 743 mmHg 84%
    03:00 +6°C° 1.1 mm 7 mps 742 mmHg 90%
    04:00 +5°C° 0.2 mm 9 mps 741 mmHg 86%
    05:00 +4°C° 0.2 mm 11 mps 741 mmHg 82%
    06:00 +3°C° 0.2 mm 12 mps 741 mmHg 79%
    07:00 +3°C° 0.3 mm 11 mps 742 mmHg 79%
    08:00 +3°C° 0.3 mm 10 mps 743 mmHg 80%
    09:00 +3°C° 0.3 mm 10 mps 745 mmHg 80%
    10:00 +5°C° 0 mm 9 mps 746 mmHg 72%
    11:00 +7°C° 0 mm 8 mps 748 mmHg 63%
    12:00 +9°C° 0 mm 8 mps 749 mmHg 55%
    13:00 +9°C° 0 mm 7 mps 750 mmHg 54%
    14:00 +10°C° 0 mm 7 mps 751 mmHg 53%
    15:00 +10°C° 0 mm 7 mps 752 mmHg 52%
    16:00 +10°C° 0 mm 6 mps 753 mmHg 58%
    17:00 +10°C° 0 mm 4 mps 753 mmHg 63%
    18:00 +10°C° 0 mm 3 mps 754 mmHg 69%
    19:00 +9°C° 0 mm 3 mps 754 mmHg 67%
    20:00 +8°C° 0 mm 3 mps 755 mmHg 65%
    21:00 +8°C° 0 mm 3 mps 755 mmHg 63%
    22:00 +7°C° 0.1 mm 3 mps 755 mmHg 70%
    23:00 +7°C° 0.1 mm 3 mps 755 mmHg 76%

    28 April, Sunday

    Time Temperature Precipitation Wind Pressure Humidity
    00:00 +5°C° 0.1 mm 3 mps 755 mmHg 82%
    01:00 +5°C° 0.4 mm 4 mps 755 mmHg 86%
    02:00 +6°C° 0.4 mm 4 mps 754 mmHg 89%
    03:00 +6°C° 0.4 mm 4 mps 754 mmHg 92%
    04:00 +7°C° 0.1 mm 4 mps 754 mmHg 93%
    05:00 +8°C° 0.1 mm 4 mps 754 mmHg 93%
    06:00 +10°C° 0.1 mm 3 mps 754 mmHg 94%
    07:00 +11°C° 0 mm 4 mps 754 mmHg 90%
    08:00 +12°C° 0 mm 4 mps 754 mmHg 86%
    09:00 +13°C° 0 mm 5 mps 754 mmHg 82%
    10:00 +13°C° 0 mm 4 mps 753 mmHg 82%
    11:00 +13°C° 0 mm 4 mps 753 mmHg 81%
    12:00 +14°C° 0 mm 4 mps 753 mmHg 81%
    13:00 +14°C° 0 mm 4 mps 753 mmHg 81%
    14:00 +14°C° 0 mm 4 mps 752 mmHg 81%
    15:00 +14°C° 0 mm 4 mps 752 mmHg 82%
    16:00 +14°C° 0 mm 4 mps 752 mmHg 83%
    17:00 +13°C° 0 mm 4 mps 752 mmHg 83%
    18:00 +13°C° 0 mm 4 mps 752 mmHg 84%
    19:00 +12°C° 0 mm 4 mps 752 mmHg 87%
    20:00 +11°C° 0 mm 4 mps 751 mmHg 89%
    21:00 +10°C° 0 mm 4 mps 751 mmHg 91%
    22:00 +10°C° 0 mm 4 mps 751 mmHg 92%
    23:00 +8°C° 0 mm 4 mps 751 mmHg 92%
    Show more